Time,TemperatureF,DewpointF,PressureIn,WindDirection,WindDirectionDegrees,WindSpeedMPH,WindSpeedGustMPH,Humidity,HourlyPrecipIn,Conditions,Clouds,dailyrainin,SolarRadiationWatts/m^2,SoftwareType,DateUTC
2015-08-01 00:04:00,73.9,72.1,30.02,SE,135,1.3,2.3,94,0.00,RA,SKC,0.00,0.0,WeatherDisplay:10.37,2015-08-01 04:04:00,
2015-08-01 00:09:00,73.9,72.1,30.02,SSE,152,1.6,2.3,94,0.00,RA,SKC,0.00,0.0,WeatherDisplay:10.37,2015-08-01 04:09:00,
2015-08-01 00:14:00,73.9,72.1,30.02,SSE,153,1.6,3.5,94,0.00,CLR,SKC,0.00,0.0,WeatherDisplay:10.37,2015-08-01 04:14:00,
2015-08-01 00:19:00,73.8,72.0,30.03,South,186,0.7,1.2,94,0.00,CLR,SKC,0.00,0.0,WeatherDisplay:10.37,2015-08-01 04:19:00,
2015-08-01 00:24:00,73.7,71.9,30.03,SSW,204,1.4,3.5,94,0.00,CLR,SKC,0.00,0.0,WeatherDisplay:10.37,2015-08-01 04:24:00,
2015-08-01 00:29:00,73.6,71.8,30.03,South,186,1.4,3.5,94,0.00,CLR,SKC,0.00,0.0,WeatherDisplay:10.37,2015-08-01 04:29:00,
2015-08-01 00:34:00,73.5,71.7,30.03,SSW,201,1.6,2.3,94,0.00,CLR,SKC,0.00,0.0,WeatherDisplay:10.37,2015-08-01 04:34:00,
2015-08-01 00:39:00,73.4,71.3,30.02,SSW,196,2.1,3.5,93,0.00,CLR,SKC,0.00,0.0,WeatherDisplay:10.37,2015-08-01 04:39:00,
2015-08-01 00:44:00,73.4,71.3,30.02,SSE,154,1.2,2.3,93,0.00,CLR,SKC,0.00,0.0,WeatherDisplay:10.37,2015-08-01 04:44:00,
2015-08-01 00:49:00,73.4,71.3,30.03,SSE,148,2.0,3.5,93,0.00,CLR,SKC,0.00,0.0,WeatherDisplay:10.37,2015-08-01 04:49:00,
2015-08-01 00:54:00,73.3,71.2,30.02,South,170,1.4,3.5,93,0.00,CLR,SKC,0.00,0.0,WeatherDisplay:10.37,2015-08-01 04:54:00,
2015-08-01 00:59:00,73.3,71.5,30.02,SSE,154,1.1,2.3,94,0.00,CLR,SKC,0.00,0.0,WeatherDisplay:10.37,2015-08-01 04:59:00,
2015-08-01 01:04:00,73.3,71.5,30.02,SE,141,2.7,3.5,94,0.00,CLR,SKC,0.00,0.0,WeatherDisplay:10.37,2015-08-01 05:04:00,
2015-08-01 01:09:00,73.3,71.5,30.02,South,171,2.2,3.5,94,0.00,CLR,SKC,0.00,0.0,WeatherDisplay:10.37,2015-08-01 05:09:00,
2015-08-01 01:14:00,73.2,71.4,30.02,SSW,210,1.7,3.5,94,0.00,CLR,SKC,0.00,0.0,WeatherDisplay:10.37,2015-08-01 05:14:00,
2015-08-01 01:19:00,73.3,71.5,30.02,SSE,161,2.6,3.5,94,0.00,CLR,SKC,0.00,0.0,WeatherDisplay:10.37,2015-08-01 05:19:00,
2015-08-01 01:24:00,73.3,71.5,30.02,SSW,207,2.0,3.5,94,0.00,CLR,SKC,0.00,0.0,WeatherDisplay:10.37,2015-08-01 05:24:00,
2015-08-01 01:29:00,73.3,71.5,30.03,South,186,0.0,1.2,94,0.00,CLR,SKC,0.00,0.0,WeatherDisplay:10.37,2015-08-01 05:29:00,
2015-08-01 01:34:00,73.3,71.5,30.03,SSW,207,0.0,0.0,94,0.00,CLR,SKC,0.00,0.0,WeatherDisplay:10.37,2015-08-01 05:34:00,
2015-08-01 01:39:00,73.2,71.4,30.02,SW,214,0.0,0.0,94,0.00,CLR,SKC,0.00,0.0,WeatherDisplay:10.37,2015-08-01 05:39:00,
2015-08-01 01:44:00,73.2,71.4,30.02,SSW,213,0.0,0.0,94,0.00,CLR,SKC,0.00,0.0,WeatherDisplay:10.37,2015-08-01 05:44:00,
2015-08-01 01:49:00,73.1,71.3,30.02,SSW,213,0.0,0.0,94,0.00,CLR,SKC,0.00,0.0,WeatherDisplay:10.37,2015-08-01 05:49:00,
2015-08-01 01:54:00,73.1,71.3,30.02,SSW,213,0.0,0.0,94,0.00,CLR,SKC,0.00,0.0,WeatherDisplay:10.37,2015-08-01 05:54:00,
2015-08-01 01:59:00,73.1,71.3,30.02,South,176,0.0,0.0,94,0.00,CLR,SKC,0.00,0.0,WeatherDisplay:10.37,2015-08-01 05:59:00,
2015-08-01 02:04:00,73.2,71.4,30.01,SSW,198,0.0,0.0,94,0.00,CLR,SKC,0.00,0.0,WeatherDisplay:10.37,2015-08-01 06:04:00,
2015-08-01 02:09:00,73.2,71.4,30.01,South,190,0.0,0.0,94,0.00,CLR,SKC,0.00,0.0,WeatherDisplay:10.37,2015-08-01 06:09:00,
2015-08-01 02:14:00,73.2,71.4,30.01,South,186,0.0,0.0,94,0.00,CLR,SKC,0.00,0.0,WeatherDisplay:10.37,2015-08-01 06:14:00,
2015-08-01 02:19:00,73.1,71.3,30.01,South,176,0.0,0.0,94,0.00,CLR,SKC,0.00,0.0,WeatherDisplay:10.37,2015-08-01 06:19:00,
2015-08-01 02:24:00,73.2,71.4,30.00,SE,134,0.0,0.0,94,0.00,CLR,SKC,0.00,0.0,WeatherDisplay:10.37,2015-08-01 06:24:00,
2015-08-01 02:29:00,73.1,71.3,30.00,SE,142,0.0,0.0,94,0.00,CLR,SKC,0.00,0.0,WeatherDisplay:10.37,2015-08-01 06:29:00,
2015-08-01 02:34:00,73.1,71.3,30.00,SE,142,0.0,0.0,94,0.00,CLR,SKC,0.00,0.0,WeatherDisplay:10.37,2015-08-01 06:34:00,
2015-08-01 02:39:00,73.1,71.3,30.01,SE,142,0.0,0.0,94,0.00,CLR,SKC,0.00,0.0,WeatherDisplay:10.37,2015-08-01 06:39:00,
2015-08-01 02:44:00,73.1,71.3,30.01,SSW,195,0.0,0.0,94,0.00,CLR,SKC,0.00,0.0,WeatherDisplay:10.37,2015-08-01 06:44:00,
2015-08-01 02:49:00,73.2,71.4,30.00,SSW,196,0.0,0.0,94,0.00,CLR,SKC,0.00,0.0,WeatherDisplay:10.37,2015-08-01 06:49:00,
2015-08-01 02:54:00,73.2,71.4,30.01,SSW,196,0.0,0.0,94,0.00,CLR,SKC,0.00,0.0,WeatherDisplay:10.37,2015-08-01 06:54:00,
2015-08-01 02:59:00,73.1,71.3,30.01,SSW,196,0.0,0.0,94,0.00,CLR,SKC,0.00,0.0,WeatherDisplay:10.37,2015-08-01 06:59:00,
2015-08-01 03:04:00,73.1,71.3,30.01,SSW,196,0.0,0.0,94,0.00,CLR,SKC,0.00,0.0,WeatherDisplay:10.37,2015-08-01 07:04:00,
2015-08-01 03:09:00,73.0,71.2,30.00,SSW,196,0.0,0.0,94,0.00,CLR,SKC,0.00,0.0,WeatherDisplay:10.37,2015-08-01 07:09:00,
2015-08-01 03:14:00,73.0,71.2,30.00,SSW,196,0.0,0.0,94,0.00,CLR,SKC,0.00,0.0,WeatherDisplay:10.37,2015-08-01 07:14:00,
2015-08-01 03:19:00,72.9,71.1,30.00,SSW,196,0.0,0.0,94,0.00,CLR,SKC,0.00,0.0,WeatherDisplay:10.37,2015-08-01 07:19:00,
2015-08-01 03:24:00,72.9,71.1,30.00,SSW,196,0.0,0.0,94,0.00,CLR,SKC,0.00,0.0,WeatherDisplay:10.37,2015-08-01 07:24:00,
2015-08-01 03:29:00,72.8,71.0,30.00,SSW,196,0.0,0.0,94,0.00,CLR,SKC,0.00,0.0,WeatherDisplay:10.37,2015-08-01 07:29:00,
2015-08-01 03:34:00,72.8,71.0,30.00,SSW,196,0.0,0.0,94,0.00,CLR,SKC,0.00,0.0,WeatherDisplay:10.37,2015-08-01 07:34:00,
2015-08-01 03:39:00,72.8,71.0,30.00,SSW,196,0.0,0.0,94,0.00,CLR,SKC,0.00,0.0,WeatherDisplay:10.37,2015-08-01 07:39:00,
2015-08-01 03:44:00,72.8,71.0,30.00,SSW,196,0.0,0.0,94,0.00,CLR,SKC,0.00,0.0,WeatherDisplay:10.37,2015-08-01 07:44:00,
2015-08-01 03:49:00,72.7,70.9,30.00,SSW,196,0.0,0.0,94,0.00,CLR,SKC,0.00,0.0,WeatherDisplay:10.37,2015-08-01 07:49:00,
2015-08-01 03:54:00,72.6,70.8,29.99,SSW,196,0.0,0.0,94,0.00,CLR,SKC,0.00,0.0,WeatherDisplay:10.37,2015-08-01 07:54:00,
2015-08-01 03:59:00,72.6,70.8,30.00,SSW,196,0.0,0.0,94,0.00,CLR,SKC,0.00,0.0,WeatherDisplay:10.37,2015-08-01 07:59:00,
2015-08-01 04:04:00,72.5,70.7,30.00,SSW,196,0.0,0.0,94,0.00,CLR,SKC,0.00,0.0,WeatherDisplay:10.37,2015-08-01 08:04:00,
2015-08-01 04:09:00,72.5,70.7,30.00,SSW,196,0.0,0.0,94,0.00,CLR,SKC,0.00,0.0,WeatherDisplay:10.37,2015-08-01 08:09:00,
2015-08-01 04:14:00,72.5,70.7,30.00,SSW,196,0.0,0.0,94,0.00,CLR,SKC,0.00,0.0,WeatherDisplay:10.37,2015-08-01 08:14:00,
2015-08-01 04:19:00,72.5,70.7,30.00,SSW,196,0.0,0.0,94,0.00,CLR,SKC,0.00,0.0,WeatherDisplay:10.37,2015-08-01 08:19:00,
2015-08-01 04:24:00,72.5,70.7,30.00,SSW,196,0.0,0.0,94,0.00,CLR,SKC,0.00,0.0,WeatherDisplay:10.37,2015-08-01 08:24:00,
2015-08-01 04:29:00,72.5,70.7,29.99,SSW,196,0.0,0.0,94,0.00,CLR,SKC,0.00,0.0,WeatherDisplay:10.37,2015-08-01 08:29:00,
2015-08-01 04:34:00,72.4,70.6,29.99,SSW,196,0.0,0.0,94,0.00,CLR,SKC,0.00,0.0,WeatherDisplay:10.37,2015-08-01 08:34:00,
2015-08-01 04:39:00,72.4,70.6,29.99,SSW,196,0.0,0.0,94,0.00,CLR,SKC,0.00,0.0,WeatherDisplay:10.37,2015-08-01 08:39:00,
2015-08-01 04:44:00,72.4,70.6,29.99,SSW,196,0.0,0.0,94,0.00,CLR,SKC,0.00,0.0,WeatherDisplay:10.37,2015-08-01 08:44:00,
2015-08-01 04:49:00,72.3,70.5,30.00,SSW,196,0.0,0.0,94,0.00,CLR,SKC,0.00,0.0,WeatherDisplay:10.37,2015-08-01 08:49:00,
2015-08-01 04:54:00,72.3,70.5,30.00,SSW,196,0.0,0.0,94,0.00,CLR,SKC,0.00,0.0,WeatherDisplay:10.37,2015-08-01 08:54:00,
2015-08-01 04:59:00,72.1,70.3,30.00,SSW,196,0.0,0.0,94,0.00,CLR,SKC,0.00,0.0,WeatherDisplay:10.37,2015-08-01 08:59:00,
2015-08-01 05:04:00,72.2,70.4,30.00,SSW,196,0.0,0.0,94,0.00,CLR,SKC,0.00,0.0,WeatherDisplay:10.37,2015-08-01 09:04:00,
2015-08-01 05:09:00,72.1,70.3,30.00,SSW,196,0.0,0.0,94,0.00,CLR,SKC,0.00,0.0,WeatherDisplay:10.37,2015-08-01 09:09:00,
2015-08-01 05:14:00,72.0,69.9,30.01,WSW,240,2.6,3.5,93,0.00,CLR,SKC,0.00,0.0,WeatherDisplay:10.37,2015-08-01 09:14:00,
2015-08-01 05:19:00,72.0,69.9,30.01,WNW,286,2.3,8.1,93,0.00,CLR,SKC,0.00,0.0,WeatherDisplay:10.37,2015-08-01 09:19:00,
2015-08-01 05:24:00,72.1,70.0,30.01,West,259,0.8,2.3,93,0.00,CLR,SKC,0.00,0.0,WeatherDisplay:10.37,2015-08-01 09:24:00,
2015-08-01 05:29:00,72.1,70.0,30.01,WSW,237,1.5,3.0,93,0.00,CLR,SKC,0.00,0.0,WeatherDisplay:10.37,2015-08-01 09:29:00,
2015-08-01 05:34:00,72.2,70.1,30.02,WNW,282,1.6,3.5,93,0.00,CLR,SKC,0.00,0.0,WeatherDisplay:10.37,2015-08-01 09:34:00,
2015-08-01 05:45:00,72.5,70.4,30.02,West,273,4.0,9.0,93,0.00,CLR,SKC,0.00,0.0,WeatherDisplay:10.37,2015-08-01 09:45:00,
2015-08-01 05:50:00,72.6,70.5,30.02,WNW,295,5.9,5.9,93,0.00,CLR,SKC,0.00,0.0,WeatherDisplay:10.37,2015-08-01 09:50:00,
2015-08-01 05:55:00,72.7,70.2,30.02,WNW,302,2.3,4.0,92,0.00,CLR,SKC,0.00,0.0,WeatherDisplay:10.37,2015-08-01 09:55:00,
2015-08-01 06:00:00,72.7,70.2,30.01,WNW,291,5.0,9.2,92,0.00,CLR,SKC,0.00,0.0,WeatherDisplay:10.37,2015-08-01 10:00:00,
2015-08-01 06:05:00,72.7,70.2,30.00,WNW,294,2.9,4.0,92,0.00,CLR,SKC,0.00,0.0,WeatherDisplay:10.37,2015-08-01 10:05:00,
2015-08-01 06:10:00,72.7,70.2,30.00,NW,311,0.7,3.5,92,0.00,CLR,SKC,0.00,0.0,WeatherDisplay:10.37,2015-08-01 10:10:00,
2015-08-01 06:15:00,72.7,70.2,30.00,WNW,292,2.6,4.6,92,0.00,OVC,SKC,0.00,0.0,WeatherDisplay:10.37,2015-08-01 10:15:00,
2015-08-01 06:20:00,72.7,70.2,30.00,WNW,293,1.5,4.0,92,0.00,OVC,SKC,0.00,0.0,WeatherDisplay:10.37,2015-08-01 10:20:00,
2015-08-01 06:25:00,72.7,70.2,29.99,WNW,285,1.5,2.3,92,0.00,OVC,SKC,0.00,0.0,WeatherDisplay:10.37,2015-08-01 10:25:00,
2015-08-01 06:30:00,72.7,70.2,29.99,WNW,286,1.0,2.3,92,0.00,OVC,SKC,0.00,0.0,WeatherDisplay:10.37,2015-08-01 10:30:00,
2015-08-01 06:35:00,72.7,70.2,29.99,WNW,286,0.5,2.3,92,0.00,OVC,SKC,0.00,0.0,WeatherDisplay:10.37,2015-08-01 10:35:00,
2015-08-01 06:40:00,72.6,70.1,29.99,WNW,286,0.2,1.2,92,0.00,OVC,SKC,0.00,0.0,WeatherDisplay:10.37,2015-08-01 10:40:00,
2015-08-01 06:45:00,72.7,70.2,29.99,WNW,286,0.9,1.2,92,0.00,OVC,SKC,0.00,0.0,WeatherDisplay:10.37,2015-08-01 10:45:00,
2015-08-01 06:50:00,72.7,70.2,29.98,WNW,285,2.0,2.3,92,0.00,BKN,SKC,0.00,7.0,WeatherDisplay:10.37,2015-08-01 10:50:00,
2015-08-01 06:55:00,72.8,70.3,29.98,ESE,121,0.9,2.3,92,0.00,BKN,SKC,0.00,11.0,WeatherDisplay:10.37,2015-08-01 10:55:00,
2015-08-01 07:00:00,72.8,70.3,29.98,ESE,121,0.0,0.0,92,0.00,BKN,SKC,0.00,12.0,WeatherDisplay:10.37,2015-08-01 11:00:00,
2015-08-01 07:05:00,72.8,70.3,29.98,ESE,121,0.0,0.0,92,0.00,BKN,SKC,0.00,16.0,WeatherDisplay:10.37,2015-08-01 11:05:00,
2015-08-01 07:10:00,72.8,70.3,29.98,ESE,121,0.0,0.0,92,0.00,BKN,SKC,0.00,16.0,WeatherDisplay:10.37,2015-08-01 11:10:00,
2015-08-01 07:15:00,72.9,70.4,29.98,ESE,121,0.0,0.0,92,0.00,BKN,SKC,0.00,18.0,WeatherDisplay:10.37,2015-08-01 11:15:00,
2015-08-01 07:20:00,73.0,70.5,29.98,ESE,121,0.0,0.0,92,0.00,BKN,SKC,0.00,18.0,WeatherDisplay:10.37,2015-08-01 11:20:00,
2015-08-01 07:25:00,73.1,70.6,29.98,SE,134,0.0,0.0,92,0.00,BKN,SKC,0.00,18.0,WeatherDisplay:10.37,2015-08-01 11:25:00,
2015-08-01 07:30:00,73.2,70.7,29.98,ESE,121,2.6,3.5,92,0.00,BKN,SKC,0.00,18.0,WeatherDisplay:10.37,2015-08-01 11:30:00,
2015-08-01 07:35:00,73.2,70.7,29.98,SE,137,2.3,3.5,92,0.00,BKN,SKC,0.00,18.0,WeatherDisplay:10.37,2015-08-01 11:35:00,
2015-08-01 07:40:00,73.4,70.9,29.98,SE,141,1.9,3.5,92,0.00,BKN,SKC,0.00,21.0,WeatherDisplay:10.37,2015-08-01 11:40:00,
2015-08-01 07:45:00,73.5,71.4,29.98,SE,142,3.0,3.5,93,0.00,BKN,SKC,0.00,25.0,WeatherDisplay:10.37,2015-08-01 11:45:00,
2015-08-01 07:50:00,73.5,71.0,29.97,SE,127,1.5,3.5,92,0.00,BKN,SKC,0.00,28.0,WeatherDisplay:10.37,2015-08-01 11:50:00,
2015-08-01 07:55:00,73.5,71.0,29.97,SE,135,3.0,3.5,92,0.00,BKN,SKC,0.00,30.0,WeatherDisplay:10.37,2015-08-01 11:55:00,
2015-08-01 08:00:00,73.5,71.0,29.97,ESE,107,2.7,4.6,92,0.00,BKN,SKC,0.00,32.0,WeatherDisplay:10.37,2015-08-01 12:00:00,
2015-08-01 08:05:00,73.4,70.9,29.97,ESE,113,2.7,6.9,92,0.00,BKN,SKC,0.00,33.0,WeatherDisplay:10.37,2015-08-01 12:05:00,
2015-08-01 08:10:00,73.5,71.0,29.97,SE,140,3.0,4.6,92,0.00,BKN,SKC,0.00,35.0,WeatherDisplay:10.37,2015-08-01 12:10:00,
2015-08-01 08:15:00,73.7,71.2,29.98,SE,139,4.5,5.8,92,0.00,BKN,SKC,0.00,39.0,WeatherDisplay:10.37,2015-08-01 12:15:00,
2015-08-01 08:20:00,73.8,71.3,29.98,SE,134,2.9,6.0,92,0.00,BKN,SKC,0.00,39.0,WeatherDisplay:10.37,2015-08-01 12:20:00,
2015-08-01 08:25:00,73.9,71.4,29.98,ESE,117,3.7,5.8,92,0.00,BKN,SKC,0.00,44.0,WeatherDisplay:10.37,2015-08-01 12:25:00,
2015-08-01 08:30:00,74.1,71.6,29.98,ESE,113,3.2,5.0,92,0.00,BKN,SKC,0.00,46.0,WeatherDisplay:10.37,2015-08-01 12:30:00,
2015-08-01 08:35:00,74.4,71.9,29.98,ESE,115,2.5,5.8,92,0.00,BKN,SKC,0.00,49.0,WeatherDisplay:10.37,2015-08-01 12:35:00,
2015-08-01 08:40:00,74.6,71.8,29.99,SE,124,2.4,3.5,91,0.00,BKN,SKC,0.00,54.0,WeatherDisplay:10.37,2015-08-01 12:40:00,
2015-08-01 08:45:00,74.8,72.0,29.99,ESE,121,1.2,3.5,91,0.00,BKN,SKC,0.00,58.0,WeatherDisplay:10.37,2015-08-01 12:45:00,
2015-08-01 08:50:00,75.0,72.2,29.99,SSE,152,1.2,3.5,91,0.00,BKN,SKC,0.00,65.0,WeatherDisplay:10.37,2015-08-01 12:50:00,
2015-08-01 08:55:00,75.2,72.4,29.99,SSE,165,1.0,2.3,91,0.00,BKN,SKC,0.00,72.0,WeatherDisplay:10.37,2015-08-01 12:55:00,
2015-08-01 09:00:00,75.4,72.6,30.00,SSE,163,1.0,2.0,91,0.00,BKN,SKC,0.00,81.0,WeatherDisplay:10.37,2015-08-01 13:00:00,
2015-08-01 09:05:00,75.6,72.8,29.99,SE,142,1.4,2.3,91,0.00,BKN,SKC,0.00,95.0,WeatherDisplay:10.37,2015-08-01 13:05:00,
2015-08-01 09:10:00,75.8,73.0,29.99,SE,140,1.1,2.3,91,0.00,BKN,SKC,0.00,105.0,WeatherDisplay:10.37,2015-08-01 13:10:00,
2015-08-01 09:15:00,76.1,73.3,29.99,SE,140,1.0,2.3,91,0.00,BKN,SKC,0.01,118.0,WeatherDisplay:10.37,2015-08-01 13:15:00,
2015-08-01 09:20:00,76.3,73.5,29.99,SE,131,0.6,2.3,91,0.01,RA,SKC,0.01,132.0,WeatherDisplay:10.37,2015-08-01 13:20:00,
2015-08-01 09:25:00,76.5,73.7,29.99,SE,139,1.0,3.5,91,0.01,RA,SKC,0.01,156.0,WeatherDisplay:10.37,2015-08-01 13:25:00,
2015-08-01 09:30:00,76.8,74.0,30.00,SE,139,0.1,1.0,91,0.01,BKN,SKC,0.01,174.0,WeatherDisplay:10.37,2015-08-01 13:30:00,
2015-08-01 09:35:00,77.1,74.3,29.99,SE,139,0.0,0.0,91,0.01,BKN,SKC,0.01,185.0,WeatherDisplay:10.37,2015-08-01 13:35:00,
2015-08-01 09:40:00,77.4,74.2,30.00,SE,139,0.0,1.2,90,0.01,BKN,SKC,0.01,195.0,WeatherDisplay:10.37,2015-08-01 13:40:00,
2015-08-01 09:45:00,77.7,74.5,30.00,SE,139,0.3,2.0,90,0.01,BKN,SKC,0.01,218.0,WeatherDisplay:10.37,2015-08-01 13:45:00,
2015-08-01 09:50:00,77.9,74.7,30.00,SE,139,0.2,1.2,90,0.01,BKN,SKC,0.01,229.0,WeatherDisplay:10.37,2015-08-01 13:50:00,
2015-08-01 09:55:00,77.9,74.4,29.99,SSW,194,0.8,2.3,89,0.01,BKN,SKC,0.01,230.0,WeatherDisplay:10.37,2015-08-01 13:55:00,
2015-08-01 10:00:00,78.2,74.7,30.00,SSW,201,0.2,3.5,89,0.01,BKN,SKC,0.01,250.0,WeatherDisplay:10.37,2015-08-01 14:00:00,
2015-08-01 10:05:00,78.4,74.9,30.00,SSW,207,0.0,0.0,89,0.01,BKN,SKC,0.01,260.0,WeatherDisplay:10.37,2015-08-01 14:05:00,
2015-08-01 10:10:00,78.7,74.8,30.00,SSW,203,0.2,2.0,88,0.01,BKN,SKC,0.01,279.0,WeatherDisplay:10.37,2015-08-01 14:10:00,
2015-08-01 10:15:00,79.1,75.2,30.00,South,190,0.7,2.3,88,0.00,BKN,SKC,0.01,308.0,WeatherDisplay:10.37,2015-08-01 14:15:00,
2015-08-01 10:20:00,79.6,75.4,30.00,SSE,159,1.1,2.3,87,0.00,BKN,SKC,0.01,385.0,WeatherDisplay:10.37,2015-08-01 14:20:00,
2015-08-01 10:25:00,80.0,75.8,30.00,SW,222,2.9,3.5,87,0.00,SCT,SKC,0.01,585.0,WeatherDisplay:10.37,2015-08-01 14:25:00,
2015-08-01 10:30:00,80.6,76.0,30.00,South,176,4.3,6.9,86,0.00,SCT,SKC,0.01,513.0,WeatherDisplay:10.37,2015-08-01 14:30:00,
2015-08-01 10:35:00,81.3,76.7,30.00,SSE,161,3.1,4.6,86,0.00,SCT,SKC,0.01,441.0,WeatherDisplay:10.37,2015-08-01 14:35:00,
2015-08-01 10:40:00,82.0,77.0,30.00,SSE,148,4.2,6.9,85,0.00,SCT,SKC,0.01,441.0,WeatherDisplay:10.37,2015-08-01 14:40:00,
2015-08-01 10:45:00,82.4,77.1,30.00,SSE,150,2.2,3.5,84,0.00,SCT,SKC,0.01,432.0,WeatherDisplay:10.37,2015-08-01 14:45:00,
2015-08-01 10:50:00,82.8,77.1,30.00,SE,136,3.4,7.0,83,0.00,BKN,SKC,0.01,427.0,WeatherDisplay:10.37,2015-08-01 14:50:00,
2015-08-01 10:55:00,83.2,77.1,30.00,SE,138,2.7,5.8,82,0.00,BKN,SKC,0.01,475.0,WeatherDisplay:10.37,2015-08-01 14:55:00,
2015-08-01 11:00:00,83.6,77.5,30.00,SE,128,4.6,6.9,82,0.00,SCT,SKC,0.01,519.0,WeatherDisplay:10.37,2015-08-01 15:00:00,